Powrót do katalogu

SL-12 R/B

AUX MOTOR

AktywnyHEO
NORAD 36115·ROCKET BODY·🇷🇺 Russia

Wystrzelony Dec 14, 2009 z Baikonur Cosmodrome

Loading…

Następne Przeloty (najbliższe 24 godziny)

TLE

ŚwieżeSource: Space-Track

Epoka: Sep 13, 2026, 00:58 UTC

1 36115U 09070E   26256.04091282  .00000074  00000-0  22426-3 0  9999
2 36115  65.2563 216.4747 5578618 262.4843  34.2412  4.26804611259739

Śledź SL-12 R/B w czasie rzeczywistym z AllMySat

Download on the App Store